Dewpoint
53 53 53 53 53 53 53 53 53 53 54 54 54 54 54 54 55 55 55 55 56 55 55 55 55 55 55 55 55 55 56 54 53 46 47 38 45 55 66 64 63 75 77 71 70 69 67 66 64 66 65 65 64 64 66 67 66 66 62 58 56 55 53 52 49 45 46 46 52 55 55 56 56 57 59 60 60 60 60 60 61 63 63 63 65 66 66 67
54 53 53 53 52 53 53 53 53 53 53 54 54 54 54 55 55 55 55 55 55 56 55 55 55 55 55 55 55 55 55 54 48 45 42 43 60 64 69 69 69 78 75 70 68 66 64 64 63 64 65 62 66 62 66 64 66 63 60 59 54 56 54 56 53 48 50 49 53 55 56 55 56 57 59 57 58 59 59 59 61 63 64 66 66 66 66 67
54 53 53 53 52 52 53 53 53 53 53 53 54 54 54 55 55 55 54 55 55 55 55 55 55 55 55 55 55 56 55 49 46 36 31 64 64 61 69 72 73 78 68 67 66 65 64 64 64 63 64 61 63 61 64 62 64 63 60 57 56 57 56 55 54 54 55 53 49 55 56 56 57 57 59 56 58 59 57 58 61 61 63 65 65 66 66 66
53 53 53 52 52 53 53 53 53 53 53 53 54 54 54 55 55 54 54 54 54 55 55 54 55 55 55 55 56 55 52 51 27 20 28 66 73 68 66 72 75 75 65 68 67 65 66 65 64 63 62 61 62 63 61 62 62 62 60 57 57 56 56 57 55 55 53 50 49 54 56 56 57 58 58 57 58 58 57 58 60 60 63 64 65 65 65 65
53 53 52 53 53 53 53 53 53 53 53 53 54 54 54 54 54 55 55 54 55 55 55 54 55 55 55 56 55 55 50 22 11 20 31 70 72 74 67 73 76 70 65 68 67 66 65 64 64 63 60 58 61 62 61 62 62 63 60 60 59 57 56 56 54 55 50 49 52 55 55 55 58 59 57 57 55 55 57 58 60 62 64 64 64 65 65 64
53 53 52 53 52 53 53 53 53 53 53 53 54 54 54 54 54 54 54 54 54 54 54 55 54 54 55 56 54 55 28 8 18 22 69 70 72 74 68 68 77 67 66 66 65 65 63 63 63 61 59 59 60 59 60 61 63 57 59 61 61 61 59 58 56 54 54 53 52 54 55 57 57 57 58 57 54 55 59 59 60 64 64 65 65 65 64 64
53 53 52 52 52 53 53 53 53 53 53 54 54 53 54 54 54 54 54 54 54 54 55 54 54 54 54 55 53 53 30 12 28 42 54 74 75 72 69 75 74 65 64 64 64 63 63 62 60 58 58 58 60 59 60 61 62 59 56 57 57 59 59 59 58 57 55 53 52 52 57 56 56 55 58 57 56 57 57 59 61 65 65 66 65 65 64 64
53 52 52 52 52 53 53 53 53 53 53 53 54 54 54 54 53 54 54 54 54 55 55 54 54 54 54 51 48 30 33 24 28 24 52 75 71 68 71 70 64 64 60 60 63 60 61 61 58 60 58 56 58 59 60 60 60 59 58 59 58 57 56 56 56 55 55 54 53 53 55 54 56 55 57 57 58 57 58 60 64 65 65 65 65 65 65 65
53 52 52 52 53 52 52 53 53 53 54 54 54 54 54 54 53 53 54 55 55 54 54 55 54 54 55 54 36 10 6 20 22 26 69 67 67 68 66 62 63 61 58 60 61 60 60 60 57 58 54 57 58 58 60 59 56 59 59 59 58 56 56 55 55 54 53 52 51 52 52 53 56 57 56 57 58 58 60 62 64 65 65 65 65 65 65 65
52 52 52 52 52 52 52 52 53 53 54 54 54 53 53 53 54 54 54 54 55 54 54 54 54 54 53 50 44 11 15 21 34 54 65 68 70 65 61 60 60 59 57 58 59 58 57 58 57 58 59 58 58 56 58 58 53 56 56 57 56 55 54 53 53 52 53 51 50 49 50 52 56 55 52 56 58 59 60 62 64 64 65 65 65 65 65 65
52 52 52 52 52 52 52 52 53 53 54 54 53 53 54 54 54 54 55 55 55 55 55 55 55 54 51 54 26 13 20 34 61 64 66 69 68 62 59 58 57 55 56 56 56 57 55 58 58 58 55 53 58 56 56 57 57 55 53 51 49 47 46 45 45 46 49 46 49 48 47 49 56 55 52 56 58 59 60 62 63 64 65 65 65 65 66 65
51 51 51 51 51 51 52 52 53 53 53 53 53 53 54 54 54 54 55 56 56 55 55 55 55 53 52 48 32 13 24 54 60 62 64 66 65 62 59 58 54 52 54 54 55 55 55 57 58 57 44 49 48 48 52 56 54 52 49 44 42 43 38 34 32 32 43 39 47 48 46 46 53 52 54 57 59 59 60 62 63 63 64 65 65 65 65 65
51 51 51 51 51 51 52 53 53 53 53 53 53 53 54 53 53 54 57 58 56 55 55 55 55 53 49 25 32 32 22 30 25 29 45 50 48 56 56 58 54 54 53 53 54 55 55 58 58 55 51 45 45 35 39 39 47 49 46 43 39 34 34 34 29 27 36 37 46 47 37 41 47 51 54 58 58 59 60 61 62 63 64 64 65 65 65 65
51 51 51 51 51 52 52 52 53 53 53 53 53 53 53 53 53 57 57 56 55 54 56 56 53 53 47 16 14 26 29 27 26 26 26 29 26 48 55 56 53 49 48 48 50 53 50 58 57 54 41 42 40 38 36 31 32 35 36 31 32 33 34 30 34 37 33 42 46 44 34 32 41 49 54 58 59 59 59 60 61 62 62 63 64 64 64 65
50 50 51 51 51 51 52 52 52 53 53 53 53 52 52 52 54 58 55 54 55 55 57 57 53 49 30 22 29 33 51 32 26 21 24 25 25 48 54 55 52 48 43 40 48 46 42 54 55 48 45 36 38 36 33 31 27 29 34 33 32 32 34 30 27 31 30 41 45 43 38 35 38 44 55 58 59 58 58 60 61 62 62 62 63 63 63 64
51 51 51 51 51 52 51 52 52 52 53 52 52 52 52 53 57 57 55 55 56 57 55 52 53 51 40 27 22 54 40 28 22 24 33 24 27 27 52 54 51 48 43 38 43 46 39 51 51 46 40 35 37 33 28 23 19 22 27 33 33 27 29 31 27 35 31 41 42 41 33 38 38 42 55 58 58 58 58 60 61 61 62 62 62 63 63 64
51 51 51 51 51 51 52 51 52 53 52 51 51 51 52 54 57 57 57 57 55 55 53 41 52 56 18 17 28 24 26 36 41 38 30 29 27 41 53 52 49 46 42 39 41 44 41 41 37 37 35 31 30 29 23 20 16 18 25 30 32 33 33 32 27 28 37 34 36 41 37 36 43 46 55 57 58 58 58 60 61 61 62 62 63 63 63 64
51 51 51 51 51 52 52 52 52 52 51 50 51 50 49 54 57 58 57 56 55 55 56 54 49 40 27 34 20 20 31 33 38 41 33 31 33 47 48 45 48 45 41 37 38 38 39 40 36 31 31 30 28 23 18 13 13 13 22 27 29 27 27 28 26 27 21 40 31 35 38 37 41 50 55 56 57 57 57 59 60 61 61 63 62 63 63 64
51 51 51 51 51 51 52 52 52 51 50 51 51 50 52 54 54 54 53 54 40 39 34 45 42 26 19 21 28 32 30 35 37 39 36 31 36 43 41 44 46 41 39 37 36 33 35 32 33 31 27 28 26 23 17 19 15 11 17 23 30 31 32 31 28 22 24 21 21 25 30 30 34 49 53 55 57 57 57 59 60 61 61 63 63 63 63 64
51 51 51 51 51 52 52 52 52 50 50 48 43 44 41 29 32 37 47 45 31 29 31 41 44 43 39 36 34 33 34 35 30 34 35 33 32 35 38 43 42 39 36 32 34 33 32 29 29 28 26 26 26 25 22 20 27 23 21 23 25 29 32 32 24 21 20 21 21 21 25 27 31 45 52 54 56 57 57 59 60 60 61 62 62 62 63 64
51 51 51 52 51 52 52 51 51 50 50 47 42 33 27 29 25 23 30 31 31 30 27 27 36 40 37 34 33 31 29 28 35 35 39 37 27 29 29 36 36 34 35 32 33 35 32 29 27 27 28 28 27 26 25 19 20 23 24 26 25 25 25 26 26 24 22 25 26 28 25 25 26 32 47 54 55 55 56 58 59 60 61 61 62 62 63 64
51 51 52 51 52 51 51 51 50 50 49 45 40 31 33 35 35 35 34 28 29 29 29 28 28 29 32 33 34 33 31 29 28 28 30 32 25 23 25 27 30 26 33 32 33 33 31 28 27 28 29 29 29 27 25 22 18 17 17 18 22 25 28 27 28 27 24 24 26 25 24 23 25 26 42 52 54 55 55 57 58 60 60 61 62 62 63 64
51 51 52 51 52 51 51 50 49 49 45 41 38 34 34 36 39 40 38 34 32 31 28 28 27 27 27 29 30 32 29 28 25 25 28 34 25 26 24 22 26 25 31 30 29 32 31 30 30 29 29 28 29 29 27 24 21 17 15 16 16 14 21 24 24 23 21 21 21 24 21 23 29 44 44 50 53 55 56 56 57 59 60 61 61 62 63 63
51 51 51 51 51 51 51 49 48 44 42 40 39 35 37 39 40 40 37 30 25 24 29 28 28 27 27 26 28 29 27 27 27 25 31 33 28 30 22 21 21 22 27 29 28 30 29 25 33 32 30 29 28 28 28 27 26 26 23 19 16 18 20 23 25 22 22 22 21 23 25 25 32 29 42 51 52 54 55 56 57 59 60 61 61 62 63 63
51 51 51 51 51 50 49 48 40 39 42 38 37 36 38 40 42 41 38 33 30 29 30 28 28 27 26 29 30 28 28 28 26 26 34 33 30 28 25 22 20 18 22 28 28 28 28 27 32 32 32 31 30 27 27 27 25 25 27 25 23 23 23 22 22 25 26 26 24 23 26 28 38 38 35 53 53 54 56 56 56 58 59 60 60 61 62 62
51 51 51 51 51 49 49 36 36 41 40 31 34 36 38 40 42 43 38 24 19 20 24 21 28 22 27 26 29 28 27 24 27 26 35 34 34 31 25 22 21 18 19 26 26 27 27 26 29 32 31 31 31 29 28 27 23 22 23 25 24 24 24 24 24 25 28 29 28 25 26 26 39 35 42 50 53 54 55 56 55 57 58 58 59 60 61 61
51 50 51 51 50 49 41 32 40 42 31 32 35 37 39 41 46 43 31 21 21 24 21 21 22 21 24 26 27 26 20 22 28 27 32 37 32 33 26 24 21 21 21 24 25 22 25 25 25 29 30 30 30 29 28 27 24 22 25 25 24 24 24 24 25 26 29 29 27 25 24 26 26 26 38 48 52 53 55 56 56 55 58 56 58 58 60 60
51 51 51 50 50 49 45 44 43 39 34 35 37 39 41 44 46 44 28 18 17 25 19 20 19 22 22 28 27 24 19 24 23 26 27 35 34 30 28 24 21 19 22 21 16 25 23 24 24 25 27 27 27 28 27 27 25 23 25 25 24 24 25 25 26 28 28 25 25 24 23 25 25 34 44 48 48 52 53 55 56 56 57 57 57 57 59 60
51 51 51 50 49 48 48 44 43 39 36 37 39 40 42 45 44 30 20 11 24 15 19 16 19 18 26 28 26 27 25 20 9 24 27 34 33 30 29 28 23 20 22 19 13 22 23 24 24 24 24 24 26 26 26 26 25 25 24 24 24 25 24 24 24 24 25 24 24 26 22 24 24 27 32 49 43 46 50 54 55 56 57 57 57 58 58 59
51 51 50 50 47 44 44 44 43 42 40 40 40 42 44 45 36 19 19 15 23 17 19 17 16 16 23 24 24 25 25 23 16 23 26 29 32 28 25 28 24 21 20 21 17 22 23 29 29 24 23 23 25 25 24 25 25 23 22 21 20 20 21 24 23 25 26 23 24 22 22 21 21 27 27 41 44 44 44 52 55 56 57 57 58 57 57 58
51 50 50 49 44 42 44 37 33 35 38 42 42 44 45 32 24 20 18 15 10 20 19 19 18 20 20 20 16 19 22 22 18 25 25 25 29 27 24 25 24 22 21 20 19 19 21 26 26 24 25 24 24 22 23 24 23 22 20 19 20 24 25 27 26 29 24 22 27 23 20 20 20 24 27 36 42 43 44 45 51 54 56 57 58 57 57 58
49 49 49 48 46 46 41 33 35 39 42 42 44 44 29 17 17 18 16 23 9 20 18 20 20 23 23 19 15 11 15 15 16 23 23 22 25 24 23 24 25 24 22 21 19 20 18 21 25 24 30 24 23 22 21 22 22 21 20 21 19 24 21 17 23 19 20 21 20 18 17 20 21 30 28 31 35 41 44 39 45 51 53 56 56 57 57 58
48 48 48 47 44 42 43 44 43 44 43 41 44 39 20 18 16 15 15 15 17 24 22 25 23 25 24 21 15 17 15 11 15 20 22 21 24 24 24 24 24 24 22 22 20 19 18 19 21 22 23 27 23 21 20 19 20 20 19 21 20 18 15 14 16 20 18 20 18 16 22 17 23 23 28 26 38 39 43 46 45 49 53 56 57 57 56 57
48 47 45 43 43 43 42 46 45 43 38 43 41 25 23 14 14 35 14 25 23 26 26 24 25 25 22 16 18 22 10 14 11 16 20 20 21 23 23 23 23 23 22 22 20 19 18 18 18 20 19 24 23 21 20 20 20 20 19 18 21 20 16 14 13 12 9 13 18 23 15 17 17 18 29 24 29 38 39 42 47 50 52 56 55 56 56 57
47 45 43 42 41 41 42 42 43 38 38 42 30 25 17 16 17 17 24 27 27 28 26 27 25 21 17 14 21 23 23 17 21 15 16 16 18 22 21 22 23 23 21 20 21 22 19 19 21 20 21 23 22 22 22 20 20 20 19 19 20 20 23 10 16 12 13 10 17 23 15 26 17 39 39 38 31 34 41 43 46 48 49 51 53 54 55 56
45 42 42 40 40 39 39 35 36 38 40 34 26 24 18 19 14 26 28 31 31 30 29 26 19 17 17 18 22 23 25 22 20 16 10 14 24 19 27 24 23 28 21 20 22 20 21 19 18 20 22 22 22 23 22 21 19 20 19 19 19 20 17 19 22 24 19 18 14 28 22 23 28 24 22 27 32 31 34 40 41 43 45 51 51 52 54 55
43 42 38 39 40 38 36 36 37 38 42 28 22 20 25 22 27 30 33 32 30 30 29 22 19 18 20 21 22 23 23 23 22 19 11 20 20 27 27 26 29 30 31 30 21 20 21 21 17 19 19 21 21 23 21 21 22 19 18 19 20 20 19 21 11 27 15 9 20 15 13 16 17 13 37 22 28 29 32 34 36 43 46 47 47 50 53 53
42 41 42 42 36 34 35 38 39 41 40 28 22 27 31 28 31 33 33 31 28 28 29 27 21 22 20 24 22 23 24 21 21 22 17 22 20 27 26 26 28 29 30 33 28 22 20 18 17 18 19 21 22 22 21 21 20 19 18 20 18 20 20 28 22 15 12 13 14 19 16 14 17 17 28 31 30 30 35 38 36 39 43 44 45 47 51 53
41 40 29 28 32 34 37 40 40 42 35 25 25 23 28 31 32 32 32 29 28 29 26 25 23 23 27 24 24 24 25 23 24 23 20 23 21 26 24 26 27 28 31 33 27 25 18 17 19 18 18 18 21 21 20 19 18 17 18 18 21 20 21 26 21 26 22 14 16 13 17 11 22 16 17 24 36 35 34 38 37 36 40 45 46 45 47 52
38 33 25 29 32 35 40 40 43 38 34 23 30 31 31 28 31 32 30 28 26 27 27 28 28 28 27 26 25 24 26 24 24 23 23 26 21 26 24 26 27 28 33 35 29 34 21 27 19 15 16 17 19 21 19 20 18 16 16 17 17 18 19 20 21 18 17 19 19 17 12 17 27 20 18 19 30 39 38 40 44 42 41 41 45 47 49 51
39 37 31 33 33 38 38 34 28 29 32 28 28 28 29 30 32 30 31 28 26 27 27 28 28 27 27 26 24 26 24 24 26 25 26 25 26 24 25 26 27 30 33 35 32 32 28 21 20 17 15 15 16 19 19 19 19 18 16 16 16 16 18 17 19 18 16 17 21 16 13 23 19 29 24 20 23 31 41 42 43 42 40 45 45 46 50 51
35 27 24 31 36 38 35 26 29 30 27 27 27 29 28 35 30 31 32 30 28 25 26 26 26 26 26 26 26 26 26 25 28 28 28 26 27 25 25 27 28 29 36 35 35 32 38 37 24 18 16 14 14 17 18 19 20 19 18 16 16 16 19 19 18 21 18 16 19 24 18 22 30 36 34 28 29 24 31 39 40 40 43 42 45 44 49 55
34 31 35 38 38 37 33 26 29 30 29 29 30 28 28 29 30 32 32 32 29 27 25 24 24 24 25 26 26 26 27 27 27 27 28 28 27 27 27 28 28 34 37 31 35 31 41 37 27 23 27 22 21 18 17 16 15 16 17 18 16 15 16 16 18 30 19 22 19 20 21 22 28 47 40 35 43 33 40 38 44 38 40 43 46 47 50 55
36 35 35 38 38 36 28 25 25 25 28 29 29 28 26 28 30 33 36 34 31 29 28 26 26 27 26 27 27 27 27 27 26 25 25 28 28 28 26 28 29 33 34 30 31 29 29 36 34 25 24 23 19 19 15 17 15 15 15 17 17 16 16 16 22 36 21 21 17 19 17 20 33 49 43 39 35 31 31 32 40 42 46 45 46 50 52 58
38 37 38 36 35 32 27 29 27 26 27 29 28 26 26 26 29 32 33 34 34 33 30 28 27 26 26 27 27 27 26 25 28 25 25 25 25 27 27 28 29 33 32 31 40 33 34 35 35 22 21 21 20 18 19 17 18 30 29 23 18 16 17 18 19 29 20 30 28 20 19 31 34 43 39 40 39 42 42 37 33 38 47 45 47 49 56 57
33 29 29 30 33 32 31 31 30 30 28 28 28 26 28 27 28 34 34 34 36 34 34 29 30 28 27 26 26 26 26 24 25 26 26 25 26 26 27 28 29 32 38 38 38 34 33 35 37 36 34 31 31 34 31 32 29 25 26 29 28 27 19 18 23 28 19 34 26 27 29 27 25 24 36 34 39 37 36 42 40 40 41 44 53 53 53 57
37 29 29 30 30 32 29 29 30 31 29 30 28 28 27 28 28 29 34 33 37 35 34 31 31 29 29 27 26 25 27 24 28 27 26 26 27 26 27 28 29 35 38 31 35 32 33 28 33 34 31 29 25 27 25 27 27 28 28 28 29 30 30 22 18 22 44 26 19 29 38 28 24 29 40 45 42 44 45 47 44 47 48 45 47 56 56 52
31 31 33 36 31 28 28 28 31 31 30 30 28 32 29 26 27 27 28 34 33 37 34 32 33 33 32 30 28 25 26 27 29 27 26 29 28 27 23 27 27 34 31 22 27 30 30 25 31 25 23 22 23 24 25 28 29 29 29 29 28 30 30 30 31 31 33 21 19 35 45 37 30 21 24 38 46 47 39 42 44 43 39 47 53 48 46 45
36 35 34 38 33 31 32 32 33 32 29 30 33 31 27 27 27 28 29 29 30 35 34 29 30 33 34 33 31 28 29 24 25 31 31 30 29 29 24 25 26 27 25 23 24 32 30 26 31 23 22 22 21 22 26 28 27 25 25 25 25 25 26 28 29 28 26 32 32 28 45 35 26 23 22 22 40 37 39 48 43 41 35 50 49 52 44 44
35 34 35 36 35 33 32 33 32 31 27 31 28 27 31 28 26 29 30 30 28 31 35 30 30 32 33 33 34 31 29 30 31 29 32 31 29 30 29 28 27 27 26 23 25 29 27 25 29 20 23 21 20 23 27 24 24 24 24 24 25 25 26 27 28 28 31 29 24 22 30 39 34 41 35 35 48 40 39 34 32 42 46 43 47 44 47 48
41 41 41 37 33 31 35 32 30 30 28 28 28 28 29 27 28 30 30 30 30 31 34 31 32 32 32 32 32 32 32 31 31 30 30 30 28 30 29 28 29 29 27 25 28 29 25 22 25 24 21 20 21 21 21 21 23 24 25 25 26 26 27 27 29 29 29 32 31 27 28 27 34 35 34 39 41 40 39 44 44 47 42 45 50 49 51 55
44 47 44 41 32 34 31 31 31 29 25 28 30 28 29 28 30 31 29 31 34 35 33 32 32 33 32 32 31 32 31 31 30 30 31 30 30 30 30 29 29 29 28 29 31 26 26 24 20 17 18 20 20 19 20 22 22 20 21 21 24 25 26 25 26 29 28 27 28 28 28 29 32 40 36 35 31 36 39 38 43 47 53 45 47 49 51 53